Location: Bottenau
(48.5138°N, 8.0462°E)
Time: 05:34:02
(UTC+00:00)

SME Rocket - Pass Details

Date: 18 April 2021
Orbit: 550 x 2651 km, 99.9° (Epoch: 09 May)

Event Time Altitude Azimuth Distance (km) Brightness Sun altitude
Rises 18:59:40 0° 16° (NNE) 2,738 6.5 -6.4°
Reaches altitude 10° 19:01:39 10° 16° (NNE) 1,859 5.6 -6.7°
Maximum altitude 19:05:27 89° 290° (WNW) 625 3.1 -7.3°
Drops below altitude 10° 19:10:10 10° 199° (SSW) 2,285 5.9 -7.9°
Sets 19:12:48 0° 199° (SSW) 3,438 6.8 -8.3°
